Location: Endfield
(51.6667°N, 0.0667°W)
Time: 01:15:10
(UTC+00:00)

USA 306 - Pass Details

Date: 19 May 2024
Orbit: 496 x 519 km, 54.0° (Epoch: 15 February)

Event Time Altitude Azimuth Distance (km) Brightness Sun altitude
Rises 21:35:08 0° 285° (WNW) 2,498 7.0 -11.9°
Reaches altitude 10° 21:37:16 10° 288° (WNW) 1,657 6.1 -12.1°
Maximum altitude 21:41:03 70° 12° (NNE) 532 2.9 -12.4°
Drops below altitude 10° 21:44:57 10° 97° (E) 1,698 5.0 -12.7°
Enters shadow 21:45:08 - 97° (E) 1,770 5.0 -12.7°
